Terug naar catalogus

STARLINK-32150

ActiefCommunicatieVLEO
NORAD 60294·PAYLOAD·🇺🇸 United States

Gelanceerd Jul 28, 2024 vanaf Cape Canaveral Space Force Station

Loading…

Volgende Passages (komende 24 uur)

TLE

VersSource: CelesTrak SupGP

Epoch: Sep 15, 2026, 03:30 UTC

1 60294C 24132S   26258.14631944 -.00042907  00000+0 -13797-2 0  2588
2 60294  53.1583 251.4148 0001402  89.6192 187.3659 15.31726036    19

Volg STARLINK-32150 in realtime met AllMySat

Download on the App Store